Regional Weather Roundup
Issued by NWS Sioux Falls, SD

Home | Current Version | Previous Version | Text Only | Print | Product List | Glossary On
Versions: 1 2 3 4 5 6 7 8 9 10 11 12 13 14 15 16 17 18 19 20 21 22 23 24 25 26 27 28 29 30 31 32 33 34 35 36 37 38 39 40 41 42 43 44 45 46 47 48 49 50
000
ASUS43 KFSD 110402
RWRFSD

WEATHER ROUNDUP FOR SE SOUTH DAKOTA/SW MINNESOTA/NW IOWA
NATIONAL WEATHER SERVICE SIOUX FALLS SD
1000 PM CST SUN DEC 10 2017

NOTE: "FAIR" INDICATES FEW OR NO CLOUDS BELOW 12,000 FEET WITH NO
SIGNIFICANT WEATHER AND OR OBSTRUCTIONS TO VISIBILITY.


SDZ038>040-050-052>070-110500-
SOUTHEAST SOUTH DAKOTA

CITY           SKY/WX    TMP DP  RH WIND       PRES   REMARKS
CHAMBERLAIN    CLOUDY    45  23  42 W9        30.00F
HURON          PTCLDY    38  27  64 W7        29.96F
MADISON        FAIR      36  30  80 W8        29.96F
MITCHELL       PTCLDY    37  27  67 W7        30.00F
SIOUX FALLS    CLOUDY    35  29  78 SW3       29.98F
WINNER         FAIR      42  19  39 W10       30.03F
YANKTON        CLOUDY    35  25  66 W6        30.01F
$$

MNZ071-072-080-081-089-090-097-098-110500-
SOUTHWEST MINNESOTA

CITY           SKY/WX    TMP DP  RH WIND       PRES   REMARKS
FAIRMONT       CLOUDY    30  27  88 S5        29.98F WCI  25
JACKSON        CLOUDY    32  28  86 MISG      29.97F
LUVERNE        CLOUDY    30  27  86 CALM      29.98F
MARSHALL       MOCLDY    33  27  78 SW5       29.96F WCI  29
MONTEVIDEO     CLOUDY    32  25  74 S5        29.94F WCI  27
PIPESTONE      CLOUDY    34  27  75 W8        29.95R WCI  27
REDWOOD FALLS  CLOUDY    32  26  78 S6        29.97S WCI  26
TRACY          MOCLDY    34  30  86 SW6       29.96R WCI  29
WINDOM           N/A     32  19  59 S3        29.96F
WORTHINGTON    CLOUDY    33  28  81 SW7       29.95F WCI  27
$$

IAZ001>003-012>014-020>022-031-032-NEZ013-014-SDZ071-110500-
NORTHWEST IOWA

CITY           SKY/WX    TMP DP  RH WIND       PRES   REMARKS
CHEROKEE       CLOUDY    31  27  84 CALM      30.00F
DENISON        CLOUDY    30  23  74 CALM      30.05F
ESTHERVILLE    PTCLDY    30  28  92 S6        29.97F WCI  24
LE MARS        CLOUDY    30  25  80 S6        30.00F WCI  24
ORANGE CITY    CLOUDY    36  30  80 SW5       29.99F
SHELDON        CLOUDY    34  28  80 SW5       29.97F WCI  30
SIOUX CITY     PTCLDY    31  23  72 E3        30.02F
SPENCER        CLOUDY    33  27  78 SW6       29.98F WCI  28
STORM LAKE     CLOUDY    34  25  69 W7        30.00F WCI  28
$$

ABBREVIATIONS USED IN REMARKS
   TC - TEMPERATURE IN CELSIUS
  WCI - WIND CHILL INDEX
   HX - HEAT INDEX
  VSB - VISIBILITY





USA.gov is the U.S. government's official web portal to all federal, state and local government web resources and services.